• In Uzbekistan
  • List of Countries
  • For 7 days
  • Water Temperature
  • Satellite Maps
  • Weather Map
  • Weather Widgets
  • user-avatar
    Login

    Hourly Weather Kipungo

    Today, 29 April, Saturday

    Time Temperature Precipitation Wind Pressure Humidity
    00:00 +16°C° 0 mm 1 mps 654 mmHg 71%
    01:00 +15°C° 0 mm 1 mps 654 mmHg 76%
    02:00 +15°C° 0 mm 1 mps 654 mmHg 78%
    03:00 +15°C° 0 mm 1 mps 654 mmHg 80%
    04:00 +14°C° 0 mm 1 mps 654 mmHg 82%
    05:00 +15°C° 0 mm 1 mps 654 mmHg 81%
    06:00 +16°C° 0 mm 1 mps 655 mmHg 80%
    07:00 +16°C° 0 mm 1 mps 655 mmHg 79%
    08:00 +19°C° 0 mm 2 mps 656 mmHg 69%
    09:00 +22°C° 0 mm 3 mps 657 mmHg 59%
    10:00 +26°C° 0 mm 3 mps 658 mmHg 49%
    11:00 +28°C° 0 mm 3 mps 657 mmHg 43%
    12:00 +30°C° 0 mm 3 mps 657 mmHg 38%
    13:00 +31°C° 0 mm 2 mps 656 mmHg 32%
    14:00 +31°C° 0 mm 2 mps 656 mmHg 31%
    15:00 +31°C° 0 mm 2 mps 656 mmHg 31%
    16:00 +31°C° 0 mm 1 mps 655 mmHg 30%
    17:00 +28°C° 0 mm 1 mps 655 mmHg 38%
    18:00 +25°C° 0 mm 1 mps 654 mmHg 46%
    19:00 +22°C° 0 mm 1 mps 654 mmHg 55%
    20:00 +21°C° 0 mm 1 mps 654 mmHg 57%
    21:00 +21°C° 0 mm 1 mps 654 mmHg 59%
    22:00 +20°C° 0 mm 1 mps 655 mmHg 61%
    23:00 +19°C° 0 mm 1 mps 654 mmHg 67%

    Tomorrow, 30 April, Sunday

    Time Temperature Precipitation Wind Pressure Humidity
    00:00 +18°C° 0 mm 1 mps 654 mmHg 73%
    01:00 +16°C° 0 mm 1 mps 654 mmHg 78%
    02:00 +15°C° 0 mm 1 mps 653 mmHg 80%
    03:00 +15°C° 0 mm 1 mps 653 mmHg 82%
    04:00 +14°C° 0 mm 1 mps 653 mmHg 84%
    05:00 +15°C° 0 mm 1 mps 654 mmHg 82%
    06:00 +16°C° 0 mm 1 mps 654 mmHg 79%
    07:00 +16°C° 0 mm 1 mps 655 mmHg 77%
    08:00 +19°C° 0 mm 2 mps 656 mmHg 66%
    09:00 +22°C° 0 mm 3 mps 657 mmHg 55%
    10:00 +26°C° 0 mm 3 mps 657 mmHg 45%
    11:00 +28°C° 0 mm 3 mps 657 mmHg 40%
    12:00 +29°C° 0 mm 3 mps 657 mmHg 35%
    13:00 +31°C° 0 mm 3 mps 656 mmHg 31%
    14:00 +31°C° 0 mm 3 mps 656 mmHg 30%
    15:00 +30°C° 0 mm 3 mps 655 mmHg 30%
    16:00 +30°C° 0 mm 3 mps 655 mmHg 30%
    17:00 +27°C° 0 mm 2 mps 654 mmHg 37%
    18:00 +24°C° 0 mm 2 mps 654 mmHg 44%
    19:00 +20°C° 0 mm 2 mps 653 mmHg 51%
    20:00 +19°C° 0 mm 2 mps 654 mmHg 53%
    21:00 +18°C° 0 mm 2 mps 654 mmHg 56%
    22:00 +17°C° 0 mm 2 mps 654 mmHg 58%
    23:00 +16°C° 0 mm 2 mps 654 mmHg 61%

    Day after tomorrow, 1 May, Monday

    Time Temperature Precipitation Wind Pressure Humidity
    00:00 +16°C° 0 mm 2 mps 653 mmHg 64%
    01:00 +15°C° 0 mm 1 mps 653 mmHg 67%
    02:00 +14°C° 0 mm 1 mps 653 mmHg 70%
    03:00 +14°C° 0 mm 1 mps 653 mmHg 74%
    04:00 +13°C° 0 mm 1 mps 652 mmHg 77%
    05:00 +14°C° 0 mm 1 mps 653 mmHg 75%
    06:00 +14°C° 0 mm 1 mps 654 mmHg 74%
    07:00 +15°C° 0 mm 1 mps 654 mmHg 73%
    08:00 +18°C° 0 mm 2 mps 655 mmHg 62%
    09:00 +21°C° 0 mm 3 mps 656 mmHg 50%
    10:00 +25°C° 0 mm 3 mps 657 mmHg 39%
    11:00 +27°C° 0 mm 3 mps 656 mmHg 34%
    12:00 +28°C° 0 mm 3 mps 656 mmHg 30%
    13:00 +30°C° 0 mm 3 mps 655 mmHg 25%
    14:00 +30°C° 0 mm 3 mps 655 mmHg 25%
    15:00 +30°C° 0 mm 2 mps 654 mmHg 25%
    16:00 +30°C° 0 mm 2 mps 654 mmHg 25%
    17:00 +26°C° 0 mm 2 mps 654 mmHg 32%
    18:00 +23°C° 0 mm 2 mps 653 mmHg 40%
    19:00 +19°C° 0 mm 2 mps 653 mmHg 47%
    20:00 +18°C° 0 mm 2 mps 653 mmHg 49%
    21:00 +17°C° 0 mm 2 mps 653 mmHg 51%
    22:00 +16°C° 0 mm 2 mps 654 mmHg 53%
    23:00 +15°C° 0 mm 2 mps 653 mmHg 56%

    2 May, Tuesday

    Time Temperature Precipitation Wind Pressure Humidity
    00:00 +14°C° 0 mm 2 mps 653 mmHg 59%
    01:00 +14°C° 0 mm 1 mps 653 mmHg 62%
    02:00 +13°C° 0 mm 1 mps 652 mmHg 65%
    03:00 +13°C° 0 mm 1 mps 652 mmHg 68%
    04:00 +12°C° 0 mm 1 mps 652 mmHg 70%
    05:00 +13°C° 0 mm 1 mps 653 mmHg 69%
    06:00 +13°C° 0 mm 1 mps 653 mmHg 68%
    07:00 +14°C° 0 mm 1 mps 654 mmHg 67%
    08:00 +17°C° 0 mm 2 mps 655 mmHg 58%
    09:00 +21°C° 0 mm 3 mps 655 mmHg 48%
    10:00 +25°C° 0 mm 3 mps 656 mmHg 38%
    11:00 +27°C° 0 mm 3 mps 656 mmHg 33%
    12:00 +28°C° 0 mm 2 mps 655 mmHg 29%
    13:00 +30°C° 0 mm 2 mps 655 mmHg 24%
    14:00 +30°C° 0 mm 2 mps 654 mmHg 24%
    15:00 +29°C° 0 mm 2 mps 654 mmHg 24%
    16:00 +29°C° 0 mm 1 mps 654 mmHg 24%
    17:00 +26°C° 0 mm 1 mps 653 mmHg 33%
    18:00 +22°C° 0 mm 1 mps 653 mmHg 42%
    19:00 +18°C° 0 mm 2 mps 652 mmHg 50%
    20:00 +17°C° 0 mm 2 mps 653 mmHg 52%
    21:00 +16°C° 0 mm 2 mps 653 mmHg 53%
    22:00 +16°C° 0 mm 2 mps 653 mmHg 54%
    23:00 +15°C° 0 mm 2 mps 653 mmHg 57%

    3 May, Wednesday

    Time Temperature Precipitation Wind Pressure Humidity
    00:00 +15°C° 0 mm 2 mps 653 mmHg 60%
    01:00 +14°C° 0 mm 2 mps 653 mmHg 62%
    02:00 +14°C° 0 mm 2 mps 652 mmHg 66%
    03:00 +13°C° 0 mm 2 mps 652 mmHg 69%
    04:00 +13°C° 0 mm 2 mps 652 mmHg 72%
    05:00 +13°C° 0 mm 2 mps 653 mmHg 72%
    06:00 +13°C° 0 mm 2 mps 653 mmHg 72%
    07:00 +14°C° 0 mm 1 mps 654 mmHg 71%
    08:00 +17°C° 0 mm 2 mps 655 mmHg 62%
    09:00 +20°C° 0 mm 3 mps 655 mmHg 52%
    10:00 +25°C° 0 mm 3 mps 656 mmHg 42%
    11:00 +26°C° 0 mm 3 mps 656 mmHg 38%
    12:00 +28°C° 0 mm 2 mps 655 mmHg 33%
    13:00 +30°C° 0 mm 2 mps 655 mmHg 28%
    14:00 +30°C° 0 mm 1 mps 655 mmHg 28%
    15:00 +30°C° 0 mm 1 mps 654 mmHg 28%
    16:00 +30°C° 0 mm 1 mps 654 mmHg 28%
    17:00 +26°C° 0 mm 1 mps 653 mmHg 41%
    18:00 +22°C° 0 mm 1 mps 652 mmHg 54%
    19:00 +18°C° 0 mm 1 mps 652 mmHg 68%
    20:00 +18°C° 0 mm 1 mps 652 mmHg 63%
    21:00 +18°C° 0 mm 1 mps 653 mmHg 59%
    22:00 +19°C° 0 mm 1 mps 653 mmHg 54%
    23:00 +17°C° 0 mm 2 mps 653 mmHg 56%

    4 May, Thursday

    Time Temperature Precipitation Wind Pressure Humidity
    00:00 +16°C° 0 mm 2 mps 653 mmHg 59%
    01:00 +15°C° 0 mm 2 mps 653 mmHg 61%
    02:00 +15°C° 0 mm 2 mps 653 mmHg 66%
    03:00 +14°C° 0 mm 2 mps 652 mmHg 71%
    04:00 +13°C° 0 mm 1 mps 652 mmHg 76%
    05:00 +14°C° 0 mm 1 mps 653 mmHg 75%
    06:00 +14°C° 0 mm 1 mps 653 mmHg 74%
    07:00 +15°C° 0 mm 1 mps 654 mmHg 73%
    08:00 +18°C° 0 mm 2 mps 655 mmHg 61%
    09:00 +21°C° 0 mm 3 mps 656 mmHg 50%
    10:00 +26°C° 0 mm 4 mps 656 mmHg 38%
    11:00 +27°C° 0 mm 3 mps 656 mmHg 34%
    12:00 +29°C° 0 mm 3 mps 656 mmHg 30%
    13:00 +30°C° 0 mm 2 mps 655 mmHg 26%
    14:00 +30°C° 0 mm 2 mps 655 mmHg 26%
    15:00 +30°C° 0 mm 1 mps 654 mmHg 26%
    16:00 +30°C° 0 mm 1 mps 654 mmHg 26%
    17:00 +27°C° 0 mm 1 mps 653 mmHg 34%
    18:00 +23°C° 0 mm 1 mps 653 mmHg 43%
    19:00 +19°C° 0 mm 2 mps 652 mmHg 51%
    20:00 +18°C° 0 mm 2 mps 653 mmHg 51%
    21:00 +18°C° 0 mm 2 mps 653 mmHg 51%
    22:00 +17°C° 0 mm 2 mps 653 mmHg 52%
    23:00 +16°C° 0 mm 2 mps 653 mmHg 55%
    Show more